Weather History for Rochester, NH

Change the Weather History Date:

Saturday, October 5, 2013

  Actual Average (KSFM) Record (KSFM)
Temperature  
Mean Temperature 60 °F -  
Max Temperature 64 °F 60 °F 82 °F (2007)
Min Temperature 55 °F 37 °F 23 °F (1996)
Degree Days  
Heating Degree Days 6    
Growing Degree Days 10 (Base 50)    
Moisture  
Dew Point 50 °F    
Average Humidity 71    
Maximum Humidity 87    
Minimum Humidity 60    
Precipitation  
Precipitation 0.00 in - - ()
Sea Level Pressure  
Sea Level Pressure 30.09 in    
Wind  
Wind Speed 2 mph (NNE)    
Max Wind Speed 6 mph    
Max Gust Speed -    
Visibility 10 miles    
Events      
Averages and records for this station are not official NWS values.
T = Trace of Precipitation, MM = Missing Value Source: NWS Daily Summary

Daily Weather History Graph

Daily Weather History Graph

Search for Another Location

Airport:

Trip Planner

Search our weather history database for the weather conditions in past years. The results will help you decide how hot, cold, wet, or windy it might be!

Date:

Astronomy

Oct. 05, 2013 Rise Set
Actual Time 6:45 AM EDT 6:17 PM EDT
Civil Twilight 6:17 AM EDT 6:45 PM EDT
Nautical Twilight 5:44 AM EDT 7:18 PM EDT
Astronomical Twilight 5:11 AM EDT 7:51 PM EDT
Moon 7:23 AM EDT (10/5) 6:31 PM EDT (10/5)
Length of Visible Light 12h 28m
Length of Day
11h 31m
New Moon, 0% of the Moon is Illuminated
Oct 5
New Moon
Oct 11
First Quarter
Oct 18
Full
Oct 26
Last Quarter
Nov 3
New

Hourly Weather History & Observations

Time (EDT) Temp. Dew Point Humidity Pressure Visibility Wind Dir Wind Speed Gust Speed Precip Events Conditions
12:51 AM 57.9 °F 54.0 °F 87% 30.06 in 10.0 mi Calm Calm - N/A   Overcast
1:51 AM 57.9 °F 54.0 °F 87% 30.06 in 10.0 mi NNW 3.5 mph - N/A   Overcast
2:51 AM 57.9 °F 53.1 °F 84% 30.06 in 10.0 mi NNW 4.6 mph - N/A   Overcast
3:51 AM 57.9 °F 48.9 °F 72% 30.06 in 10.0 mi NNE 3.5 mph - N/A   Overcast
4:51 AM 57.9 °F 46.0 °F 65% 30.07 in 10.0 mi NNE 3.5 mph - N/A   Overcast
5:51 AM 57.0 °F 45.0 °F 64% 30.09 in 10.0 mi NNW 3.5 mph - N/A   Overcast
6:51 AM 55.9 °F 43.0 °F 62% 30.10 in 10.0 mi North 4.6 mph - N/A   Overcast
7:51 AM 55.9 °F 44.1 °F 64% 30.10 in 10.0 mi North 3.5 mph - N/A   Overcast
8:51 AM 57.0 °F 45.0 °F 64% 30.12 in 10.0 mi NNE 3.5 mph - N/A   Overcast
9:51 AM 60.1 °F 46.9 °F 62% 30.11 in 10.0 mi East 5.8 mph - N/A   Scattered Clouds
10:51 AM 62.1 °F 48.0 °F 60% 30.11 in 10.0 mi NE 3.5 mph - N/A   Overcast
11:51 AM 62.1 °F 48.9 °F 62% 30.11 in 10.0 mi Calm Calm - N/A   Overcast
12:51 PM 63.0 °F 48.9 °F 60% 30.10 in 10.0 mi Calm Calm - N/A   Overcast
1:51 PM 63.0 °F 50.0 °F 63% 30.08 in 10.0 mi Calm Calm - N/A   Overcast
2:51 PM 64.0 °F 50.0 °F 60% 30.07 in 10.0 mi Calm Calm - N/A   Overcast
3:51 PM 64.0 °F 50.0 °F 60% 30.08 in 10.0 mi Calm Calm - N/A   Overcast
4:51 PM 62.1 °F 52.0 °F 70% 30.08 in 10.0 mi ESE 4.6 mph - N/A   Overcast
5:51 PM 60.1 °F 52.0 °F 75% 30.09 in 10.0 mi East 3.5 mph - N/A   Overcast
6:51 PM 57.9 °F 51.1 °F 78% 30.10 in 10.0 mi Calm Calm - N/A   Overcast
7:51 PM 57.0 °F 52.0 °F 83% 30.10 in 10.0 mi Calm Calm - N/A   Overcast
8:51 PM 57.0 °F 52.0 °F 83% 30.11 in 10.0 mi Calm Calm - N/A   Overcast
9:51 PM 57.0 °F 52.0 °F 83% 30.11 in 10.0 mi Calm Calm - N/A   Overcast
10:51 PM 57.0 °F 52.0 °F 83% 30.12 in 10.0 mi Calm Calm - N/A   Overcast
11:51 PM 57.0 °F 52.0 °F 83% 30.12 in 10.0 mi Calm Calm - N/A   Overcast